Location: Asheville, NC
(35.6000°N, 82.5500°W)
Time: 08:55:00
(UTC-04:00)

NUDT-PHONESAT - Pass Details

Date: 06 January 2018
Orbit: 494 x 511 km, 97.4° (Epoch: 26 April)

Event Time Altitude Azimuth Distance (km) Brightness Sun altitude
Rises 18:50:51 0° 196° (SSW) 2,606 ? -15.6°
Reaches altitude 10° 18:53:17 10° 212° (SSW) 1,727 ? -16.1°
Maximum altitude 18:56:13 22° 264° (W) 1,166 ? -16.7°
Drops below altitude 10° 18:59:09 10° 316° (NW) 1,739 ? -17.3°
Sets 19:01:37 0° 332° (NNW) 2,630 ? -17.7°
